CW9181 Weather Reports


Display with metric or nautical units.
time (UTC)temp
F
wind
direction
speed
MPH
gust
MPH
rain 1hr
in
rain 24hr
in
rain mn
in
humidity
%
barometer
mb
20260506223802 75 75 5.0 11.0 0.00 0.00 0.00 55 1018.0
20260506222818 74 41 3.0 8.0 0.00 0.00 0.00 55 1018.1
20260506221804 74 107 1.0 12.0 0.00 0.00 0.00 56 1018.3
20260506220805 73 260 1.0 10.0 0.00 0.00 0.00 56 1018.5
20260506215802 74 8 6.0 11.0 0.00 0.00 0.00 57 1018.5
20260506214806 73 327 4.0 10.0 0.00 0.00 0.00 57 1018.7
20260506213811 73 314 3.0 10.0 0.00 0.00 0.00 59 1018.7
20260506212812 73 270 3.0 10.0 0.00 0.00 0.00 58 1018.9
20260506211812 73 22 1.0 10.0 0.00 0.00 0.00 56 1018.9
20260506210815 72 291 3.0 8.0 0.00 0.00 0.00 60 1019.1
20260506205817 72 251 4.0 8.0 0.00 0.00 0.00 57 1019.3
20260506204818 72 51 2.0 8.0 0.00 0.00 0.00 57 1019.3
20260506203801 73 344 2.0 9.0 0.00 0.00 0.00 60 1019.6
20260506202808 71 193 1.0 6.0 0.00 0.00 0.00 58 1019.6
20260506201808 71 68 1.0 4.0 0.00 0.00 0.00 60 1019.7
20260506200812 70 325 1.0 5.0 0.00 0.00 0.00 62 1019.8
20260506195814 70 230 3.0 5.0 0.00 0.00 0.00 61 1019.8
20260506194817 70 21 3.0 9.0 0.00 0.00 0.00 61 1019.8
20260506193818 70 353 3.0 6.0 0.00 0.00 0.00 61 1020.1
20260506192820 69 265 3.0 5.0 0.00 0.00 0.00 62 1020.3
20260506191803 69 11 1.0 6.0 0.00 0.00 0.00 65 1020.3
20260506190803 69 239 3.0 7.0 0.00 0.00 0.00 63 1020.4
20260506185805 69 347 3.0 6.0 0.00 0.00 0.00 65 1020.4
20260506184810 69 299 2.0 6.0 0.00 0.00 0.00 65 1020.6
20260506183806 68 146 1.0 5.0 0.00 0.00 0.00 64 1020.6
20260506182807 69 321 1.0 6.0 0.00 0.00 0.00 65 1020.7
20260506181806 67 109 1.0 3.0 0.00 0.00 0.00 68 1020.7
20260506180801 66 154 2.0 4.0 0.00 0.00 0.00 68 1020.7
20260506175826 66 187 1.0 5.0 0.00 0.00 0.00 68 1020.7
20260506174804 66 246 1.0 5.0 0.00 0.00 0.00 71 1020.6
20260506173818 65 296 1.0 3.0 0.00 0.00 0.00 72 1020.6
20260506172803 64 253 2.0 3.0 0.00 0.00 0.00 73 1020.6
20260506171825 64 184 0.0 3.0 0.00 0.00 0.00 72 1020.7
20260506170802 63 124 1.0 3.0 0.00 0.00 0.00 74 1020.7
20260506165803 63 282 2.0 3.0 0.00 0.00 0.00 76 1020.6
20260506164825 62 178 1.0 4.0 0.00 0.00 0.00 76 1020.6
20260506163804 62 353 1.0 3.0 0.00 0.00 0.00 76 1020.6
20260506162826 61 195 1.0 4.0 0.00 0.00 0.00 76 1020.6
20260506161810 61 176 2.0 3.0 0.00 0.00 0.00 76 1020.6
20260506160805 61 172 2.0 4.0 0.00 0.00 0.00 77 1020.6
20260506155807 60 193 3.0 4.0 0.00 0.00 0.00 78 1020.5
20260506154808 60 196 2.0 5.0 0.00 0.00 0.00 78 1020.6
20260506153824 60 176 2.0 4.0 0.00 0.00 0.00 79 1020.5
20260506152806 59 136 1.0 4.0 0.00 0.00 0.00 79 1020.5
20260506151807 59 118 3.0 5.0 0.00 0.00 0.00 80 1020.4
20260506150811 59 181 1.0 3.0 0.00 0.00 0.00 81 1020.5
20260506145811 59 151 2.0 5.0 0.00 0.00 0.00 81 1020.4
20260506144816 58 199 2.0 4.0 0.00 0.00 0.00 81 1020.4
20260506143819 58 199 2.0 6.0 0.00 0.00 0.00 82 1020.4
20260506142818 58 178 2.0 4.0 0.00 0.00 0.00 82 1020.5
20260506141801 58 189 1.0 4.0 0.00 0.00 0.00 82 1020.4
20260506140807 58 201 0.0 3.0 0.00 0.00 0.00 82 1020.3
20260506135806 58 153 0.0 3.0 0.00 0.00 0.00 82 1020.1
20260506134808 58 164 1.0 4.0 0.00 0.00 0.00 82 1020.0
20260506133812 58 182 3.0 4.0 0.00 0.00 0.00 82 1019.8
20260506132815 58 135 0.0 6.0 0.00 0.00 0.00 82 1019.8
20260506131815 58 128 2.0 4.0 0.00 0.00 0.00 82 1019.8
20260506130800 57 163 1.0 4.0 0.00 0.00 0.00 82 1019.8
20260506125801 57 137 2.0 5.0 0.00 0.00 0.00 82 1019.8
20260506124817 57 124 1.0 4.0 0.00 0.00 0.00 82 1019.8
20260506123804 57 141 1.0 6.0 0.00 0.00 0.00 82 1019.7
20260506122806 58 168 0.0 4.0 0.00 0.00 0.00 83 1019.6
20260506121807 58 140 1.0 4.0 0.00 0.00 0.00 83 1019.5
20260506120811 58 155 3.0 7.0 0.00 0.00 0.00 82 1019.5
20260506115815 58 125 1.0 6.0 0.00 0.00 0.00 82 1019.3
20260506114819 58 123 2.0 4.0 0.00 0.00 0.00 82 1019.3
20260506113840 58 141 2.0 4.0 0.00 0.00 0.00 82 1019.4
20260506112803 58 143 0.0 4.0 0.00 0.00 0.00 82 1019.4
20260506111804 58 114 0.0 4.0 0.00 0.00 0.00 82 1019.3
20260506110803 58 128 3.0 5.0 0.00 0.00 0.00 82 1019.2
20260506105808 58 132 1.0 3.0 0.00 0.00 0.00 82 1019.0
20260506104832 58 139 1.0 4.0 0.00 0.00 0.00 82 1019.0
20260506103809 58 114 2.0 4.0 0.00 0.00 0.00 82 1018.9
20260506102813 58 95 1.0 5.0 0.00 0.00 0.00 81 1018.9
20260506101818 58 144 3.0 6.0 0.00 0.00 0.00 81 1018.8
20260506100800 58 133 4.0 5.0 0.00 0.00 0.00 81 1018.8
20260506095803 58 124 2.0 7.0 0.00 0.00 0.00 81 1018.8
20260506094809 58 124 2.0 5.0 0.00 0.00 0.00 81 1018.7
20260506093807 58 131 2.0 4.0 0.00 0.00 0.00 80 1018.7
20260506092809 59 112 2.0 4.0 0.00 0.00 0.00 80 1018.7
20260506091814 59 143 1.0 5.0 0.00 0.00 0.00 80 1018.7
20260506090800 59 116 3.0 7.0 0.00 0.00 0.00 80 1018.7
20260506085817 59 167 3.0 6.0 0.00 0.00 0.00 80 1018.6
20260506084822 59 143 3.0 5.0 0.00 0.00 0.00 80 1018.7
20260506083803 59 114 3.0 4.0 0.00 0.00 0.00 80 1018.7
20260506082822 59 139 0.0 3.0 0.00 0.00 0.00 80 1018.8
20260506081804 59 140 1.0 4.0 0.00 0.00 0.00 80 1018.8
20260506080807 59 158 0.0 3.0 0.00 0.00 0.00 80 1018.7
20260506072808 60 182 0.0 2.0 0.00 0.01 0.00 80 1018.3
20260506071814 60 180 2.0 4.0 0.00 0.01 0.00 80 1018.3
20260506070835 60 186 1.0 3.0 0.00 0.01 0.00 79 1018.2
20260506061816 60 180 0.0 3.0 0.00 0.05 0.01 79 1017.8
20260506060819 60 198 1.0 5.0 0.00 0.05 0.01 78 1017.7
20260506050818 61 184 3.0 7.0 0.00 0.15 0.01 77 1017.3
20260506044802 62 182 2.0 4.0 0.00 0.26 0.01 77 1017.0
20260506043821 62 195 2.0 5.0 0.00 0.26 0.01 78 1017.0
20260506042811 62 180 0.0 4.0 0.00 0.26 0.01 77 1016.9
20260506041829 62 157 0.0 4.0 0.00 0.26 0.01 77 1016.6
20260506040803 62 161 3.0 7.0 0.00 0.26 0.01 77 1016.5
20260506035837 63 132 3.0 7.0 0.00 0.49 0.01 76 1016.3
20260506034814 63 126 3.0 5.0 0.00 0.49 0.01 76 1016.4
20260506033828 63 139 3.0 5.0 0.00 0.49 0.01 75 1016.4
20260506032805 63 141 2.0 6.0 0.00 0.49 0.01 75 1016.3
20260506031804 63 110 2.0 6.0 0.00 0.49 0.01 74 1016.2
20260506030819 63 168 0.0 3.0 0.00 0.49 0.01 73 1015.9
20260506025814 63 136 3.0 7.0 0.00 0.58 0.01 73 1015.8
20260506024809 63 172 3.0 8.0 0.00 0.58 0.01 72 1015.7
20260506023842 63 155 2.0 8.0 0.00 0.58 0.01 72 1015.6
20260506022818 64 184 4.0 10.0 0.00 0.58 0.01 72 1015.4
20260506021818 64 165 3.0 8.0 0.00 0.58 0.01 72 1015.2
20260506020811 64 120 5.0 11.0 0.00 0.58 0.01 71 1015.2
20260506015811 64 124 5.0 8.0 0.00 0.67 0.01 70 1015.2
20260506014839 65 182 5.0 10.0 0.00 0.67 0.01 69 1015.2
20260506013815 65 97 5.0 8.0 0.00 0.67 0.01 68 1015.1
20260506012817 65 101 6.0 8.0 0.00 0.67 0.01 68 1015.1
20260506011842 65 127 3.0 10.0 0.00 0.67 0.01 69 1015.2
20260506010819 65 144 3.0 10.0 0.00 0.67 0.01 68 1015.2
20260506005817 66 118 3.0 7.0 0.00 0.71 0.01 67 1015.0
20260506004817 66 96 3.0 6.0 0.00 0.71 0.01 67 1014.8
20260506003814 66 112 5.0 9.0 0.00 0.71 0.01 67 1014.8
20260506002816 66 159 2.0 7.0 0.00 0.71 0.01 67 1014.7
20260506001818 66 145 5.0 9.0 0.00 0.71 0.01 66 1014.7
20260506000811 66 103 4.0 8.0 0.00 0.71 0.01 65 1014.7
20260505235812 66 136 2.0 5.0 0.00 0.82 0.01 65 1014.7
20260505234814 66 157 2.0 5.0 0.00 0.82 0.01 64 1014.7
20260505233813 66 202 1.0 8.0 0.00 0.82 0.01 65 1014.7
20260505232812 67 184 3.0 7.0 0.00 0.82 0.01 64 1014.7
20260505231809 67 172 2.0 5.0 0.00 0.82 0.01 62 1014.6
20260505230807 67 114 3.0 5.0 0.00 0.82 0.01 62 1014.7
20260505225808 67 34 2.0 3.0 0.00 0.88 0.01 62 1014.7
20260505224801 67 143 1.0 4.0 0.00 0.88 0.01 63 1014.7